Location: �mondeville
(49.4591°N, 1.3431°W)
Time: 23:45:22
(UTC+00:00)

Cosmos 1140 Rocket - Pass Details

Date: 22 October 2019
Orbit: 745 x 766 km, 74.1° (Epoch: 19 November)

Event Time Altitude Azimuth Distance (km) Brightness Sun altitude
Exits shadow 05:36:28 10° 248° (WSW) 2,252 5.4 -10.5°
Maximum altitude 05:40:48 28° 307° (NW) 1,389 4.4 -9.8°
Drops below altitude 10° 05:45:14 10° 6° (N) 2,280 6.0 -9.1°
Sets 05:47:56 0° 18° (NNE) 3,206 6.9 -8.6°
